TJS-5

Last updated on Thu Nov 21 2024 00:02:44 GMT+0000 (Coordinated Universal Time)

1 44978U 20002A 24325.55764800 -.00000341 00000+0 00000+0 0 9994 2 44978 0.1805 93.2504 0005816 123.9550 151.1369 1.00271544 17947
UTC large
Height (km)
Speed (km/s)
/
Latitude / Longitude
Inclination (degrees)
Orbital Period (minutes)
Azimuth
Elevation
Range (km)
Doppler Factor

Next 0 passes for location: London (51.5072 / 0.1276)

Sorry there are no passes over London.